Regional Weather Roundup
Issued by NWS

Home | Current Version | Previous Version | Graphics & Text | Print | Product List | Glossary On
Versions: 1 2 3 4 5 6 7 8 9 10 11 12 13 14 15 16 17 18 19 20 21 22 23 24 25 26 27 28 29 30 31 32 33 34 35 36 37 38 39 40 41 42 43 44 45 46 47 48 49 50
000
ASUS43 KLSX 051957
RWRMO

WEATHER SUMMARY FOR MISSOURI
NATIONAL WEATHER SERVICE SPRINGFIELD MO
200 PM CST MON DEC 05 2016

NOTE: "FAIR" INDICATES FEW OR NO CLOUDS BELOW 12,000 FEET WITH NO
       SIGNIFICANT WEATHER AND/OR OBSTRUCTIONS TO VISIBILITY.
       CURRENT SKY AND/OR WEATHER CONDITIONS ARE NOT AVAILABLE FOR
       CHILLICOTHE AND FARMINGTON.

MOZ001>031-035>038-043-044-053-054-052100-
...NORTHERN AND WESTERN MISSOURI...

CITY           SKY/WX    TMP DP  RH WIND       PRES   REMARKS
KANSAS CTY INT MOSUNNY   51  33  50 S14       29.76F
LEE`S SUMMIT   SUNNY     51  34  52 S20G25    29.78F
ST JOSEPH      SUNNY     51  35  54 S17       29.76F
CHILLICOTHE      N/A     50  34  54 S13       29.82F
KIRKSVILLE     PTSUNNY   37  37 100 SE10      29.86F

$$
MOZ066>068-077>081-088>096-101>105-052100-
...SOUTHWEST MISSOURI...

CITY           SKY/WX    TMP DP  RH WIND       PRES   REMARKS
SPRINGFIELD    CLOUDY    44  36  73 SE13      29.81F
JOPLIN         MOSUNNY   47  37  68 E9        29.79F
BRANSON        CLOUDY    45  37  76 SE9       29.84F

$$
MOZ032>034-039>042-045>050-055>058-069>072-052100-
...CENTRAL MISSOURI...

CITY           SKY/WX    TMP DP  RH WIND       PRES   REMARKS
COLUMBIA       NOT AVBL
JEFFERSON CITY MOSUNNY   44  38  79 E6        29.88F
ROLLA          MOSUNNY   47  38  71 SE9       29.86F
SEDALIA        SUNNY     51  33  50 S15       29.84F
WARRENSBURG    SUNNY     50  36  57 SE15G21   29.82F

$$
MOZ051-052-059>065-052100-
...EAST CENTRAL MISSOURI...

CITY           SKY/WX    TMP DP  RH WIND       PRES   REMARKS
ST LOUIS INTL  CLOUDY    46  34  62 SE12      29.94F

$$
MOZ072>076-082>087-097>100-106>115-052100-
...SOUTH CENTRAL AND SOUTHEAST MISSOURI...

CITY           SKY/WX    TMP DP  RH WIND       PRES   REMARKS
CAPE GIRARDEAU CLOUDY    44  36  73 E7        29.96F
POPLAR BLUFF   CLOUDY    42  38  85 E8        29.92F
WEST PLAINS    SUNNY     45  34  65 E7        29.87F

$$



USA.gov is the U.S. government's official web portal to all federal, state and local government web resources and services.